Date String (YYYY-MM-DD hh:mm:ss) UTC,Instrument flags,Ambient pressure (hPa),Sample flow (lpm),Bypass flow (lpm),Sample temperature (°C),Ambient temperature (°C),ASC tube jacket temperature (°C),LED temperature (°C),Box temperature (°C),Sample RH (%),Span deviation,Mass concentration (μg/m³),Mass concentration (μg/m³),Mass concentration (μg/m³)
DateTimeUTC,F1_M11,P_M11,Q1_M11,Q2_M11,T1_M11,T2_M11,T3_M11,T4_M11,T5_M11,U1_M11,ZSPAN_M11,X2_M11,X0_M11,X1_M11
2021-12-23 16:00:00,,0819.5,4.99,0.00,25.3,24.5,00.0,34.2,27.2,11.4,0000.0,0000.39,0000.54,0000.29
2021-12-23 16:01:00,,0819.5,5.01,0.00,25.3,24.6,00.0,34.2,27.2,11.4,0000.0,0000.42,0000.62,0000.29
2021-12-23 16:02:00,,0819.6,4.99,0.00,25.4,24.6,00.0,34.2,27.2,11.4,0000.0,0000.41,0000.58,0000.30
2021-12-23 16:03:00,,0819.7,5.01,0.00,25.4,24.6,00.0,34.2,27.2,11.3,0000.0,0000.43,0000.92,0000.30
2021-12-23 16:04:00,,0819.8,5.00,0.00,25.4,24.6,00.0,34.3,27.3,11.5,0000.0,0000.42,0001.03,0000.30
2021-12-23 16:05:00,,0819.8,4.99,0.00,25.4,24.6,00.0,34.3,27.3,11.6,0000.0,0000.43,0001.05,0000.29
2021-12-23 16:06:00,,0819.7,5.01,0.00,25.5,24.6,00.0,34.3,27.3,11.7,0000.0,0000.43,0001.17,0000.29
2021-12-23 16:07:00,,0819.7,4.99,0.00,25.5,24.7,00.0,34.3,27.3,11.7,0000.0,0000.45,0001.19,0000.29
2021-12-23 16:08:00,,0819.6,5.01,0.00,25.5,24.7,00.0,34.3,27.3,11.8,0000.0,0000.45,0001.21,0000.28
2021-12-23 16:09:00,,0819.6,4.99,0.00,25.5,24.8,00.0,34.4,27.4,11.8,0000.0,0000.45,0001.44,0000.27
2021-12-23 16:10:00,,0819.6,5.00,0.00,25.6,24.8,00.0,34.4,27.4,11.8,0000.0,0000.44,0001.99,0000.27
2021-12-23 16:11:00,,0819.6,4.99,0.00,25.6,24.8,00.0,34.4,27.4,11.9,0000.0,0000.44,0001.98,0000.27
2021-12-23 16:12:00,,0819.5,5.00,0.00,25.6,24.8,00.0,34.4,27.4,12.0,0000.0,0000.43,0002.31,0000.26
2021-12-23 16:13:00,,0819.5,5.01,0.00,25.6,24.9,00.0,34.4,27.4,12.0,0000.0,0000.42,0002.73,0000.25
2021-12-23 16:14:00,,0819.6,4.99,0.00,25.6,24.9,00.0,34.5,27.5,12.1,0000.0,0000.39,0002.44,0000.25
2021-12-23 16:15:00,,0819.6,5.00,0.00,25.6,24.9,00.0,34.5,27.5,12.1,0000.0,0000.40,0002.29,0000.24
2021-12-23 16:16:00,,0819.5,5.00,0.00,25.6,24.9,00.0,34.5,27.5,12.1,0000.0,0000.39,0002.62,0000.24
2021-12-23 16:17:00,,0819.5,5.00,0.00,25.7,24.9,00.0,34.5,27.5,12.0,0000.0,0000.41,0003.54,0000.24
2021-12-23 16:18:00,,0819.6,5.02,0.00,25.7,25.0,00.0,34.5,27.5,12.1,0000.0,0000.39,0003.52,0000.24
2021-12-23 16:19:00,,0819.5,4.99,0.00,25.7,25.0,00.0,34.5,27.5,12.2,0000.0,0000.40,0004.06,0000.24
2021-12-23 16:20:00,,0819.4,5.00,0.00,25.7,25.0,00.0,34.6,27.6,12.3,0000.0,0000.43,0004.91,0000.24
2021-12-23 16:21:00,,0819.4,5.00,0.00,25.7,25.0,00.0,34.6,27.6,12.3,0000.0,0000.44,0004.45,0000.24
2021-12-23 16:22:00,,0819.3,5.01,0.00,25.7,25.0,00.0,34.6,27.6,12.2,0000.0,0000.44,0004.46,0000.24
2021-12-23 16:23:00,,0819.3,5.01,0.00,25.8,25.0,00.0,34.6,27.6,12.3,0000.0,0000.42,0004.05,0000.23
2021-12-23 16:24:00,,0819.2,4.99,0.00,25.8,25.1,00.0,34.6,27.6,12.4,0000.0,0000.42,0003.74,0000.23
2021-12-23 16:25:00,,0819.3,5.01,0.00,25.8,25.1,00.0,34.6,27.6,12.4,0000.0,0000.42,0003.75,0000.23
2021-12-23 16:26:00,,0819.3,5.00,0.00,25.8,25.0,00.0,34.7,27.6,12.4,0000.0,0000.39,0003.70,0000.22
2021-12-23 16:27:00,,0819.1,5.00,0.00,25.8,25.0,00.0,34.7,27.6,12.4,0000.0,0000.39,0003.70,0000.21
2021-12-23 16:28:00,,0819.1,5.00,0.00,25.8,25.0,00.0,34.7,27.5,12.5,0000.0,0000.37,0002.41,0000.21
2021-12-23 16:29:00,,0819.1,4.99,0.00,25.8,24.9,00.0,34.7,27.5,12.4,0000.0,0000.35,0002.29,0000.20
2021-12-23 16:30:00,,0819.1,5.01,0.00,25.8,24.9,00.0,34.7,27.5,12.4,0000.0,0000.34,0002.28,0000.20
2021-12-23 16:31:00,,0819.1,5.00,0.00,25.7,24.9,00.0,34.7,27.4,12.4,0000.0,0000.33,0000.95,0000.20
2021-12-23 16:32:00,,0819.1,5.00,0.00,25.7,24.9,00.0,34.7,27.4,12.4,0000.0,0000.31,0000.71,0000.19
2021-12-23 16:33:00,,0819.1,5.00,0.00,25.7,24.8,00.0,34.7,27.4,12.4,0000.0,0000.30,0000.63,0000.19
2021-12-23 16:34:00,,0819.1,4.99,0.00,25.7,24.7,00.0,34.7,27.4,12.4,0000.0,0000.30,0000.62,0000.19
2021-12-23 16:35:00,,0819.0,5.01,0.00,25.7,24.8,00.0,34.7,27.5,12.4,0000.0,0000.29,0000.49,0000.19
2021-12-23 16:36:00,,0818.9,5.01,0.00,25.8,24.8,00.0,34.7,27.5,12.3,0000.0,0000.28,0000.48,0000.18
2021-12-23 16:37:00,,0818.9,4.99,0.00,25.8,24.8,00.0,34.7,27.5,12.3,0000.0,0000.28,0000.47,0000.18
2021-12-23 16:38:00,,0818.9,5.00,0.00,25.8,24.7,00.0,34.7,27.5,12.2,0000.0,0000.28,0001.17,0000.17
2021-12-23 16:39:00,,0818.9,4.99,0.00,25.8,24.7,00.0,34.7,27.5,12.2,0000.0,0000.26,0001.80,0000.17
2021-12-23 16:40:00,,0818.9,4.99,0.00,25.8,24.8,00.0,34.7,27.5,12.1,0000.0,0000.27,0001.80,0000.17
2021-12-23 16:41:00,,0818.8,5.00,0.00,25.8,24.8,00.0,34.7,27.6,12.1,0000.0,0000.27,0002.16,0000.17
2021-12-23 16:42:00,,0818.8,5.02,0.00,25.8,24.8,00.0,34.7,27.6,12.2,0000.0,0000.26,0002.35,0000.17
2021-12-23 16:43:00,,0818.8,4.99,0.00,25.8,24.9,00.0,34.7,27.6,12.1,0000.0,0000.24,0003.65,0000.17
2021-12-23 16:44:00,,0818.8,5.00,0.00,25.9,24.9,00.0,34.7,27.6,12.0,0000.0,0000.22,0003.62,0000.17
2021-12-23 16:45:00,,0818.8,5.00,0.00,25.9,25.0,00.0,34.8,27.6,12.0,0000.0,0000.21,0003.62,0000.16
2021-12-23 16:46:00,,0818.7,5.00,0.00,25.9,25.0,00.0,34.8,27.7,12.0,0000.0,0000.21,0003.65,0000.16
2021-12-23 16:47:00,,0818.8,5.01,0.00,25.9,25.1,00.0,34.8,27.7,12.0,0000.0,0000.21,0003.70,0000.16
2021-12-23 16:48:00,,0818.7,4.99,0.00,25.9,25.1,00.0,34.8,27.7,12.0,0000.0,0000.23,0003.72,0000.17
2021-12-23 16:49:00,,0818.9,5.00,0.00,26.0,25.2,00.0,34.8,27.8,12.0,0000.0,0000.22,0003.21,0000.18
2021-12-23 16:50:00,,0818.9,5.01,0.00,26.0,25.2,00.0,34.8,27.8,12.0,0000.0,0000.23,0002.38,0000.17
2021-12-23 16:51:00,,0818.9,4.99,0.00,26.0,25.2,00.0,34.8,27.8,11.9,0000.0,0000.23,0002.41,0000.17
2021-12-23 16:52:00,,0818.9,5.01,0.00,26.0,25.3,00.0,34.9,27.9,11.9,0000.0,0000.26,0002.24,0000.17
2021-12-23 16:53:00,,0818.9,5.00,0.00,26.0,25.3,00.0,34.9,27.9,11.9,0000.0,0000.26,0001.95,0000.17
2021-12-23 16:54:00,,0818.9,5.00,0.00,26.0,25.3,00.0,34.9,27.9,11.9,0000.0,0000.27,0000.65,0000.17
2021-12-23 16:55:00,,0818.9,5.00,0.00,26.1,25.3,00.0,34.9,27.9,11.9,0000.0,0000.27,0000.65,0000.18
2021-12-23 16:56:00,,0818.8,5.00,0.00,26.1,25.4,00.0,34.9,27.9,11.9,0000.0,0000.27,0000.64,0000.18
2021-12-23 16:57:00,,0818.8,5.01,0.00,26.1,25.4,00.0,34.9,27.9,11.9,0000.0,0000.26,0000.62,0000.18
2021-12-23 16:58:00,,0818.8,4.99,0.00,26.1,25.4,00.0,35.0,28.0,11.9,0000.0,0000.26,0000.54,0000.18
2021-12-23 16:59:00,,0818.7,5.00,0.00,26.1,25.4,00.0,35.0,28.0,11.8,0000.0,0000.26,0000.82,0000.17
